Location: PSU-Greenbush Astrophysical Observatory
(37.5140°N, 94.9880°W)
Time: 08:16:48
(UTC-06:00)

Vanguard 2 Rocket - Visible Passes

Search period start: 28 January 2020 00:00
Search period end: 07 February 2020 00:00
Orbit: 554 x 3326 km, 32.9° (Epoch: 27 January)

Date Brightness Start Highest point End Pass type
(mag) Time Alt. Az. Time Alt. Az. Time Alt. Az.
28 Jan 7.3 05:00:06 37° SE 05:00:06 37° SE 05:04:08 10° E visible
29 Jan 9.3 04:04:01 10° E 04:04:01 10° E 04:04:04 10° E visible
29 Jan 6.9 06:09:49 21° WSW 06:12:36 51° S 06:18:42 10° ESE visible
30 Jan 6.8 05:13:43 46° SSE 05:13:43 46° SSE 05:18:20 10° ESE visible
31 Jan 8.9 04:17:37 14° ESE 04:17:37 14° ESE 04:18:24 10° E visible
31 Jan 7.1 06:23:25 15° WSW 06:26:47 44° S 06:32:40 10° ESE visible
01 Feb 6.5 05:27:19 45° SSW 05:27:35 46° S 05:32:27 10° ESE visible
02 Feb 8.5 04:31:12 19° ESE 04:31:12 19° ESE 04:32:36 10° ESE visible
02 Feb 7.5 06:37:06 10° WSW 06:40:59 33° SSW 06:46:22 10° SE visible
03 Feb 6.8 05:40:54 34° SW 05:41:46 38° S 05:46:24 10° ESE visible
04 Feb 8.0 04:44:48 23° SE 04:44:48 23° SE 04:46:43 10° ESE visible
04 Feb 8.1 06:51:45 10° WSW 06:55:11 22° SSW 06:59:37 10° SE visible
05 Feb 7.3 05:54:31 22° SW 05:55:56 27° SSW 06:00:04 10° SE visible
06 Feb 7.8 04:58:26 24° SSE 04:58:26 24° SSE 05:00:40 10° SE visible
